User: anonymous   Login
Location: Caltech
(34.1382°N, 118.1253°W)
Time: 06:10:38
(UTC-07:00)
Language:

SO-50 - Orbit

View from above orbital plane
View from above orbital plane
View from above satellite
View from above satellite

Ground track
Ground track

The orbit data is extracted from the following two-line orbital elements,

1 27607U 02058C   15107.27567050  .00001601  00000-0  24860-3 0  9994
2 27607 064.5567 024.7750 0078337 300.2100 059.1261 14.74635041662302
Epoch (UTC): 17 April 2015 06:36:57
Eccentricity: 0.0078337
inclination: 64.5567°
perigee height: 591 km
apogee height: 701 km
right ascension of ascending node: 24.7750°
argument of perigee: 300.2100°
revolutions per day: 14.74635041
mean anomaly at epoch: 59.1261°
orbit number at epoch: 66230

The dashed part of the orbit path shows where the satellite is in the earth's shadow,  

DLR